Tracking 18673 objects as of 27-June-2017
HD Live streaming from Space Station
objects crossing your sky now

AAU CUBESAT

Track AAU CUBESAT now!
10-day predictions
AAU CUBESAT is classified as:


NORAD ID: 27846
Int'l Code: 2003-031G
Perigee: 819.5 km
Apogee: 831.3 km
Inclination: 98.7 °
Period: 101.3 minutes
Semi major axis: 7196 km
RCS: 0.009 m2 (small)
Launch date: June 30, 2003
Source: Denmark (DEN)
Launch site: PLESETSK MISSILE AND SPACE COMPLEX (PKMTR)
Uplink (MHz):
Downlink (MHz): 437.450
Beacon (MHz): 437.450
Mode: 9600bps GMSK
Call sign:
Status: Inactive

Your satellite tracking list
Your tracking list is empty





NASA's NSSDC Master Catalog

Two Line Element Set (TLE):
1 27846U 03031G   17175.00140053 +.00000033 +00000-0 +34714-4 0  9997
2 27846 098.6820 182.7035 0008194 306.6475 053.3949 14.22111164725281
Source of the keplerian elements: AFSPC